^^
North Bend WA Weather Station Historical Data
Daily Summary for December 01, 2021 Units:  English    Metric   Both
Daily Weekly Monthly Yearly Custom
  High: Low: Average:
Temperature: 58 °F 54 °F 56.1 °F
Dew Point: 53 °F 52 °F 52.1 °F
Humidity: 92% 81% 86%
Wind Speed: 5mph 0mph 2.1mph
Wind Gust: 13mph - -
Wind- - SSE
Pressure: 30.2 in 30.15 in -
Precipitation: 0 in    
Historical Graphs
 
 
Tabular Data for December 01, 2021
Time Temperature Dew Point Pressure Wind Wind Speed Wind Gust Humidity Rainfall Rate (Hourly) solar
00:04 57 °F 52 °F 30.2 in ENE 3 mph 6 mph 84% 0 in 0 W/m2
00:09 57 °F 52 °F 30.2 in N 2 mph 6 mph 84% 0 in 0 W/m2
00:14 57 °F 53 °F 30.2 in ESE 1 mph 4 mph 84% 0 in 0 W/m2
00:19 57 °F 52 °F 30.19 in S 3 mph 9 mph 83% 0 in 0 W/m2
00:24 57 °F 52 °F 30.19 in SW 3 mph 9 mph 82% 0 in 0 W/m2
00:29 58 °F 52 °F 30.19 in SSE 2 mph 6 mph 82% 0 in 0 W/m2
00:34 58 °F 53 °F 30.19 in E 2 mph 5 mph 83% 0 in 0 W/m2
00:39 57 °F 52 °F 30.18 in E 3 mph 12 mph 83% 0 in 0 W/m2
00:44 57 °F 52 °F 30.18 in ESE 5 mph 13 mph 83% 0 in 0 W/m2
00:49 58 °F 53 °F 30.18 in SSE 3 mph 13 mph 83% 0 in 0 W/m2
00:54 57 °F 52 °F 30.18 in ESE 4 mph 7 mph 83% 0 in 0 W/m2
00:59 57 °F 52 °F 30.18 in SE 2 mph 7 mph 83% 0 in 0 W/m2
01:04 57 °F 52 °F 30.18 in E 5 mph 12 mph 83% 0 in 0 W/m2
01:09 57 °F 52 °F 30.18 in E 3 mph 12 mph 83% 0 in 0 W/m2
01:14 57 °F 52 °F 30.18 in NNE 4 mph 10 mph 83% 0 in 0 W/m2
01:19 57 °F 52 °F 30.18 in ENE 2 mph 10 mph 83% 0 in 0 W/m2
01:24 57 °F 52 °F 30.18 in SE 3 mph 5 mph 83% 0 in 0 W/m2
01:29 57 °F 53 °F 30.18 in S 1 mph 5 mph 84% 0 in 0 W/m2
01:34 57 °F 52 °F 30.18 in ESE 3 mph 6 mph 84% 0 in 0 W/m2
01:39 57 °F 52 °F 30.17 in ESE 4 mph 12 mph 84% 0 in 0 W/m2
01:44 57 °F 52 °F 30.17 in ESE 4 mph 12 mph 84% 0 in 0 W/m2
01:49 57 °F 52 °F 30.17 in ESE 3 mph 10 mph 84% 0 in 0 W/m2
01:54 57 °F 52 °F 30.17 in S 2 mph 10 mph 83% 0 in 0 W/m2
01:59 57 °F 52 °F 30.17 in SE 1 mph 9 mph 83% 0 in 0 W/m2
02:04 57 °F 52 °F 30.17 in SE 3 mph 9 mph 83% 0 in 0 W/m2
02:09 58 °F 52 °F 30.18 in E 4 mph 9 mph 81% 0 in 0 W/m2
02:14 58 °F 53 °F 30.18 in ENE 2 mph 9 mph 81% 0 in 0 W/m2
02:19 58 °F 53 °F 30.18 in NNW 2 mph 7 mph 82% 0 in 0 W/m2
02:24 58 °F 53 °F 30.17 in N 1 mph 7 mph 83% 0 in 0 W/m2
02:29 57 °F 53 °F 30.17 in S 1 mph 3 mph 84% 0 in 0 W/m2
02:34 57 °F 52 °F 30.17 in SSE 1 mph 4 mph 85% 0 in 0 W/m2
02:39 56 °F 52 °F 30.17 in W 1 mph 5 mph 86% 0 in 0 W/m2
02:44 56 °F 52 °F 30.17 in S 2 mph 5 mph 87% 0 in 0 W/m2
02:49 56 °F 52 °F 30.17 in SE 2 mph 4 mph 87% 0 in 0 W/m2
02:54 56 °F 52 °F 30.16 in WSW 2 mph 4 mph 88% 0 in 0 W/m2
02:59 55 °F 52 °F 30.16 in S 2 mph 6 mph 88% 0 in 0 W/m2
03:04 55 °F 52 °F 30.16 in SSW 2 mph 6 mph 89% 0 in 0 W/m2
03:09 55 °F 52 °F 30.17 in NNE 1 mph 4 mph 88% 0 in 0 W/m2
03:14 56 °F 52 °F 30.16 in SSE 2 mph 4 mph 88% 0 in 0 W/m2
03:19 56 °F 52 °F 30.16 in SW 1 mph 4 mph 88% 0 in 0 W/m2
03:24 55 °F 52 °F 30.16 in S 1 mph 5 mph 89% 0 in 0 W/m2
03:29 55 °F 52 °F 30.16 in WNW 1 mph 5 mph 89% 0 in 0 W/m2
03:34 55 °F 52 °F 30.16 in S 1 mph 4 mph 89% 0 in 0 W/m2
03:39 55 °F 52 °F 30.16 in NW 2 mph 4 mph 90% 0 in 0 W/m2
03:44 55 °F 52 °F 30.15 in S 2 mph 6 mph 90% 0 in 0 W/m2
03:49 55 °F 52 °F 30.15 in ESE 2 mph 6 mph 90% 0 in 0 W/m2
03:54 55 °F 52 °F 30.15 in SW 2 mph 5 mph 90% 0 in 0 W/m2
03:59 55 °F 52 °F 30.15 in SE 2 mph 5 mph 91% 0 in 0 W/m2
04:04 55 °F 52 °F 30.15 in S 1 mph 5 mph 91% 0 in 0 W/m2
04:09 55 °F 52 °F 30.15 in SSE 1 mph 4 mph 91% 0 in 0 W/m2
04:14 54 °F 52 °F 30.15 in SE 1 mph 4 mph 91% 0 in 0 W/m2
04:19 54 °F 52 °F 30.15 in SE 1 mph 4 mph 91% 0 in 0 W/m2
04:24 55 °F 52 °F 30.16 in S 1 mph 4 mph 91% 0 in 0 W/m2
04:29 55 °F 52 °F 30.16 in W 2 mph 5 mph 91% 0 in 0 W/m2
04:34 55 °F 52 °F 30.16 in SSE 2 mph 7 mph 91% 0 in 0 W/m2
04:39 55 °F 52 °F 30.15 in Calm   7 mph 91% 0 in 0 W/m2
04:44 55 °F 52 °F 30.15 in W 1 mph 2 mph 91% 0 in 0 W/m2
04:49 54 °F 52 °F 30.15 in SSW 1 mph 4 mph 92% 0 in 0 W/m2
04:54 54 °F 52 °F 30.15 in SE 2 mph 4 mph 92% 0 in 0 W/m2
04:59 54 °F 52 °F 30.15 in W 2 mph 4 mph 92% 0 in 0 W/m2
05:04 54 °F 52 °F 30.15 in ESE 1 mph 4 mph 92% 0 in 0 W/m2
North Bend WA Weather
Compliments of Weather Underground - 12.6 mb